Location: Balaclava NSW 2575, Australia
(34.4510°S, 150.4953°E)
Time: 11:10:10
(UTC+10:00)

N. Korean satellite - Pass Details

Date: 17 May 2021
Orbit: 450 x 499 km, 97.2° (Epoch: 24 June)

Event Time Altitude Azimuth Distance (km) Brightness Sun altitude
Rises 18:18:41 0° 193° (SSW) 2,628 10.3 -15.7°
Reaches altitude 10° 18:21:44 10° 220° (SW) 1,733 9.7 -16.3°
Maximum altitude 18:23:30 13° 249° (WSW) 1,543 9.9 -16.6°
Drops below altitude 10° 18:25:15 10° 277° (W) 1,720 10.7 -17.0°
Sets 18:28:16 0° 305° (NW) 2,589 11.5 -17.6°
